| time (UTC) | temp F | wind direction | speed MPH | gust MPH | rain 1hr in | rain 24hr in | rain mn in | humidity % | barometer mb |
| 20260504044555 | 50 | 184 | 5.0 | 10.0 | 0.00 | 0.03 | 0.00 | 73 | 1010.9 |
| 20260504043053 | 50 | 202 | 6.0 | 14.0 | 0.00 | 0.03 | 0.00 | 72 | 1010.8 |
| 20260504041550 | 51 | 200 | 9.0 | 12.0 | 0.00 | 0.03 | 0.00 | 71 | 1011.0 |
| 20260504040048 | 52 | 177 | 7.0 | 14.0 | 0.00 | 0.03 | 0.00 | 70 | 1011.2 |
| 20260504034546 | 52 | 185 | 7.0 | 14.0 | 0.00 | 0.03 | 0.03 | 69 | 1011.2 |
| 20260504033051 | 53 | 185 | 7.0 | 11.0 | 0.00 | 0.03 | 0.03 | 68 | 1011.4 |
| 20260504031544 | 53 | 206 | 6.0 | 11.0 | 0.00 | 0.03 | 0.03 | 68 | 1011.5 |
| 20260504030048 | 53 | 178 | 6.0 | 11.0 | 0.00 | 0.03 | 0.03 | 66 | 1011.5 |
| 20260504024555 | 54 | 187 | 7.0 | 10.0 | 0.00 | 0.03 | 0.03 | 65 | 1011.6 |
| 20260504023046 | 54 | 174 | 7.0 | 11.0 | 0.00 | 0.03 | 0.03 | 65 | 1011.7 |
| 20260504021550 | 54 | 195 | 7.0 | 11.0 | 0.00 | 0.03 | 0.03 | 65 | 1011.7 |
| 20260504020047 | 54 | 193 | 5.0 | 10.0 | 0.00 | 0.03 | 0.03 | 63 | 1011.9 |
| 20260504014540 | 54 | 180 | 5.0 | 10.0 | 0.00 | 0.03 | 0.03 | 62 | 1011.8 |
| 20260504013047 | 55 | 207 | 8.0 | 15.0 | 0.00 | 0.03 | 0.03 | 60 | 1011.9 |
| 20260504011541 | 55 | 196 | 6.0 | 12.0 | 0.00 | 0.03 | 0.03 | 60 | 1011.9 |
| 20260504010039 | 55 | 174 | 6.0 | 10.0 | 0.00 | 0.03 | 0.03 | 59 | 1011.8 |
| 20260504004549 | 56 | 201 | 5.0 | 9.0 | 0.00 | 0.03 | 0.03 | 57 | 1011.8 |
| 20260504003038 | 56 | 212 | 7.0 | 12.0 | 0.00 | 0.03 | 0.03 | 56 | 1011.8 |
| 20260504001540 | 56 | 196 | 11.0 | 19.0 | 0.00 | 0.03 | 0.03 | 56 | 1011.7 |
| 20260504000037 | 57 | 220 | 8.0 | 14.0 | 0.00 | 0.03 | 0.03 | 55 | 1011.8 |
| 20260503234538 | 57 | 173 | 8.0 | 18.0 | 0.00 | 0.03 | 0.03 | 55 | 1011.8 |
| 20260503233036 | 57 | 184 | 10.0 | 15.0 | 0.00 | 0.03 | 0.03 | 56 | 1011.5 |
| 20260503231535 | 56 | 199 | 9.0 | 19.0 | 0.00 | 0.03 | 0.03 | 57 | 1011.5 |
| 20260503230037 | 54 | 200 | 10.0 | 15.0 | 0.00 | 0.03 | 0.03 | 64 | 1011.8 |
| 20260503224531 | 52 | 158 | 6.0 | 14.0 | 0.00 | 0.03 | 0.03 | 77 | 1011.9 |
| 20260503223029 | 51 | 120 | 7.0 | 13.0 | 0.00 | 0.03 | 0.03 | 78 | 1012.1 |
| 20260503221526 | 50 | 109 | 8.0 | 12.0 | 0.00 | 0.03 | 0.03 | 80 | 1012.5 |
| 20260503220027 | 49 | 113 | 7.0 | 11.0 | 0.00 | 0.03 | 0.03 | 80 | 1012.8 |
| 20260503214522 | 49 | 99 | 6.0 | 10.0 | 0.00 | 0.03 | 0.03 | 81 | 1013.2 |
| 20260503213023 | 49 | 89 | 3.0 | 7.0 | 0.00 | 0.03 | 0.03 | 80 | 1013.5 |
| 20260503211524 | 49 | 112 | 2.0 | 8.0 | 0.00 | 0.03 | 0.03 | 80 | 1013.6 |
| 20260503210017 | 49 | 109 | 2.0 | 6.0 | 0.01 | 0.03 | 0.03 | 80 | 1013.8 |
| 20260503204516 | 48 | 93 | 0.0 | 3.0 | 0.03 | 0.03 | 0.03 | 84 | 1014.0 |
| 20260503203013 | 47 | 16 | 2.0 | 4.0 | 0.03 | 0.03 | 0.03 | 84 | 1014.6 |
| 20260503201510 | 47 | 120 | 1.0 | 4.0 | 0.03 | 0.03 | 0.03 | 79 | 1015.1 |
| 20260503200010 | 48 | 303 | 4.0 | 25.0 | 0.02 | 0.02 | 0.02 | 70 | 1016.3 |
| 20260503194510 | 52 | 239 | 10.0 | 26.0 | 0.00 | 0.00 | 0.00 | 61 | 1016.2 |
| 20260503193028 | 55 | 216 | 9.0 | 22.0 | 0.00 | 0.00 | 0.00 | 48 | 1015.3 |
| 20260503191509 | 56 | 240 | 9.0 | 24.0 | 0.00 | 0.00 | 0.00 | 46 | 1015.0 |
| 20260503190015 | 57 | 214 | 11.0 | 20.0 | 0.00 | 0.00 | 0.00 | 44 | 1015.2 |
| 20260503184506 | 58 | 202 | 12.0 | 23.0 | 0.00 | 0.00 | 0.00 | 43 | 1015.5 |
| 20260503183004 | 58 | 237 | 9.0 | 22.0 | 0.00 | 0.00 | 0.00 | 44 | 1015.7 |
| 20260503181501 | 58 | 225 | 12.0 | 18.0 | 0.00 | 0.00 | 0.00 | 47 | 1016.0 |
| 20260503174617 | 58 | 199 | 11.0 | 25.0 | 0.00 | 0.00 | 0.00 | 46 | 1016.3 |
| 20260503173058 | 58 | 227 | 7.0 | 22.0 | 0.00 | 0.00 | 0.00 | 44 | 1016.4 |
| 20260503171553 | 57 | 248 | 10.0 | 23.0 | 0.00 | 0.00 | 0.00 | 47 | 1016.7 |
| 20260503081509 | 29 | 139 | 0.0 | 0.0 | 0.00 | 0.00 | 0.00 | 94 | 1017.2 |
| 20260503071504 | 29 | 139 | 0.0 | 0.0 | 0.00 | 0.00 | 0.00 | 94 | 1017.3 |